Location: Brno
(49.2000°N, 16.6330°E)
Time: 09:46:06
(UTC+02:00)

BREEZE M DEB (TANK) - Visible Passes

Search period start: 05 September 2015 00:00
Search period end: 15 September 2015 00:00
Orbit: 289 x 12096 km, 49.5° (Epoch: 04 September)

Date Brightness Start Highest point End Pass type
(mag) Time Alt. Az. Time Alt. Az. Time Alt. Az.
05 Sep 3.1 04:38:57 28° SW 04:40:54 72° SSE 04:50:50 10° ENE visible
06 Sep 2.8 04:01:41 46° S 04:02:20 53° SSE 04:10:03 10° ENE visible
07 Sep 3.7 03:24:23 33° ESE 03:24:23 33° ESE 03:29:38 10° ENE visible
08 Sep 4.8 02:47:04 17° E 02:47:04 17° E 02:49:21 10° E visible
10 Sep 3.8 05:26:09 11° W 05:30:06 87° N 05:44:56 10° E visible
11 Sep 3.3 04:48:45 25° W 04:51:07 90° N 05:02:56 10° E visible
12 Sep 2.7 04:11:20 55° WSW 04:12:13 81° SSE 04:21:33 10° E visible
13 Sep 3.0 03:33:54 59° ESE 03:33:54 59° ESE 03:40:42 10° ENE visible
14 Sep 4.3 02:56:26 28° E 02:56:26 28° E 03:00:14 10° ENE visible
